www.pogodaiklimat.ru

Погода и климат >> Архив погоды >> Монголия >> Улаангом


ПОГОДА в Улаангоме

  • Прогноз погоды в Улаангоме
  • Монитор погоды в Улаангоме

АРХИВ ПОГОДЫ в Улаангоме

Время (UTC), дата Ветер
(напр.,м/с)
 
Видим.   Явления Облачность Т
(С)
Тd
(С)
f
(%)
Тe
(С)
Тes
(С)
Комфортность P
(гПа)
Po
(гПа)
Тmin
(С)
Tmax
(С)
R
(мм)
R24
(мм)
S
(см)
06 19.04 В 3 50 км ясно +1.8 -22.9 14 -1 +11 1028.8 915.6
09 19.04 Ю 4 50 км ясно +2.7 -24.9 11 -1 +5 1026.7 914.1
12 19.04 В 1 50 км 4/0
[Ci]
+2.6 -25.0 11 +2 +3 1024.5 912.1 +3.4
15 19.04 В 2 50 км 4/0
[Ac lent]
-2.4 -14.8 38 -5 -5 1026.4 911.8
18 19.04 ЮВ 1 50 км 6/0
[Ac lent Cs]
-4.5 -12.0 56 -6 -6 1024.4 909.2
21 19.04 штиль 0 50 км 9/0
[As trans Cs]
-5.4 -10.9 65 -6 -6 1023.1 907.7
00 20.04 Ю 1 50 км 9/0
[Ac lent Cs]
-3.4 -9.8 61 -5 -5 1019.9 905.7 -6.1
03 20.04 штиль 0 50 км 3/0
[Ac trans]
+3.5 -23.3 12 +4 +14 опасность
простуды
1015.5 904.4
06 20.04 ЮВ 3 50 км 3/1 1000 м
[Cu hum Ac lent]
+6.0 -19.5 14 +4 +13 опасность
простуды
1012.6 902.8
09 20.04 В 4 50 км 8/5 600 м
[Cu med, cong Ac lent]
+6.1 -21.2 12 +4 +5 1010.3 900.8
12 20.04 Ю 1 50 км 8/5 600 м
[Frnb As trans]
+5.8 -20.5 13 +6 +6 1010.0 900.4 +7.5
15 20.04 штиль 0 50 км 8/4 600 м
[Sc diur, vesp Ac cuf]
+3.4 -14.3 26 +4 +4 1010.8 900.2
18 20.04 З 2 н/о 5/3 600 м
[Sc Ac lent]
+0.3 -12.7 37 -2 -2 1010.9 899.1
21 20.04 Ю 4 н/о 5/3 600 м
[Sc Ac lent]
-0.1 -7.8 56 -5 -5 1009.8 898.0
00 21.04 штиль 0 50 км 5/0
[Ci ing]
+1.3 -9.9 43 +1 +2 1008.4 897.3 -2.0
03 21.04 СВ 3 50 км 5/3 600 м
[Cu hum Ci]
+9.9 -15.6 15 +9 +14 1003.8 896.4
06 21.04 ЮВ 3 50 км 6/5 600 м
[Cu hum Ci ing]
+13.1 -11.4 17 +12 +18 1000.6 894.6
09 21.04 С 4
{10}
50 км 8/5 600 м
[Cu med, cong Ci]
+13.3 -12.8 15 +12 +15 1002.4 896.3
12 21.04 С 5 50 км 6/4 600 м
[Sc Ac lent]
+9.5 -5.2 35 +7 +7 1007.0 899.1 +14.1
15 21.04 С 3 50 км 6/0
[As trans]
+6.6 -6.0 40 +4 +4 1011.9 902.4
18 21.04 С 3 50 км 6/0
[As trans]
+3.4 -8.6 41 0 0 1017.9 906.5
21 21.04 С 2 50 км 8/3 600 м
[Sc Ac lent]
+1.6 -11.5 37 -1 -1 1020.4 908.1
00 22.04 З 2 50 км 8/4 1000 м
[Cu hum Ac lent Cs]
+0.5 -11.2 41 -2 -2 1022.6 909.6 +0.1
03 22.04 С 4 50 км 8/0
[Ac cast Cs]
+4.7 -12.7 27 +2 +5 1021.1 909.9
06 22.04 В 5 50 км 8/4 600 м
[Cu med, cong Ac lent Cs]
+6.1 -10.2 30 +3 +6 1019.4 908.9
09 22.04 ЮВ 3 50 км 6/3 1000 м
[Cu hum Ci]
+8.2 -11.2 24 +6 +11 1017.6 908.1
12 22.04 ЮВ 3 50 км 8/0
[Ac lent Ci ing]
+7.2 -11.5 25 +5 +6 1018.5 908.5 +8.5
15 22.04 Ю 1 н/о 5/0
[As trans]
+3.8 -11.0 33 +3 +3 1022.1 910.4
18 22.04 штиль 0 н/о 4/0
[Ac trans]
+2.6 -11.3 35 +3 +3 1023.8 911.5
21 22.04 С 2 н/о 5/0
[As trans Ci]
-0.2 -9.9 48 -3 -3 1026.1 912.4
00 23.04 С 3 50 км 8/0
[As op]
+0.6 -10.8 42 -3 -3 1026.5 913.1 -0.5
03 23.04 С 3 50 км 6/0
[Ac trans Cs]
+4.4 -11.7 30 +2 +8 1024.2 912.5
06 23.04 В 4 50 км 6/0
[Ac cast Cs]
+7.3 -13.6 21 +5 +12 1020.5 910.3
09 23.04 В 2 50 км 8/0
[As trans Cs]
+7.7 -13.9 20 +7 +12 1018.7 908.9
12 23.04 В 2 50 км 4/0
[Ac cast]
+7.4 -12.9 22 +6 +7 1017.9 908.0 +9.0
15 23.04 ЮЗ 2 50 км 3/0
[As trans]
+1.3 -6.7 55 -2 -2 1021.0 908.5
18 23.04 Ю 3 50 км 5/0
[As trans]
+1.1 -6.0 59 -3 -3 1020.7 908.1
21 23.04 Ю 2 50 км 6/0
[Ac trans]
+1.3 -4.6 65 -2 -2 1019.7 907.3
00 24.04 ЮЗ 2 50 км 8/4 1000 м
[Sc Ac trans]
0.0 -5.4 67 -3 -3 1020.6 907.6 -0.8
03 24.04 В 2 50 км 8/4 1000 м
[Cu hum Ac lent Cs]
+8.7 -9.3 27 +8 +11 1016.5 907.3
06 24.04 В 4 50 км 6/6 1000 м
[Cu hum]
+11.0 -7.8 26 +9 +13 1013.7 905.6
09 24.04 В 5 50 км 6/6 1000 м
[Cu hum]
+11.9 -9.2 22 +10 +12 1011.2 903.7
12 24.04 В 1 50 км 9/6 600 м
[Frnb Ac As]
+10.8 -8.4 25 +11 +11 1013.1 905.0 +13.2
15 24.04 З 3 50 км ясно +4.9 -1.1 65 +2 +2 1017.6 906.8
18 24.04 Ю 3 50 км ясно +1.3 -3.2 72 -3 -3 1019.2 906.9
21 24.04 Ю 4 50 км ясно -0.6 -4.1 77 -6 -6 1019.8 906.7
00 25.04 Ю 3 50 км 6/0
[Cs]
+2.5 -3.4 65 -1 -1 1018.7 906.9 -1.6
03 25.04 С 3 50 км 6/0
[Cs]
+8.9 -5.0 37 +7 +14 1015.3 906.3
06 25.04 В 4 50 км 6/0
[Ac lent Cs]
+10.9 -5.6 31 +9 +16 1012.6 904.6
09 25.04 В 3 50 км 8/4 600 м
[Frnb As trans]
+11.1 -6.3 29 +10 +12 1010.2 902.5
12 25.04 Ю 1 50 км 8/4 600 м
[Frnb As trans]
+11.2 -7.6 26 +12 +12 1009.8 902.2 +11.9
15 25.04 З 2 50 км 6/3 600 м
[Sc As trans]
+5.8 -4.9 46 +4 +4 1012.5 902.6
18 25.04 Ю 4 50 км 6/0
[As trans]
+2.7 -3.4 64 -2 -2 1014.1 902.9
21 25.04 ЮЗ 2 50 км 4/0
[Ac lent]
+2.9 -5.0 56 0 0 1015.6 904.3
00 26.04 С 3 50 км 4/0
[Ac lent]
+7.4 -4.1 44 +5 +6 1016.1 906.4 +0.9
03 26.04 В 3 50 км 5/3 1000 м
[Cu med, cong As trans]
+13.7 -6.0 25 +13 +18 1014.2 907.0

 

Местоположение метеостанции Улаангом (Монголия): широта 49.80 долгота 92.08 высота над уровнем моря 939 м.

В архиве по умолчанию представлена погода в Улаангоме за последнюю неделю. Архивные данные за месяц целиком и за предыдущие месяцы, начиная с января 2011 года, Вы можете получить, выбрав интересующий диапазон дат из раскрывающегося списка и нажав кнопку "Ввод!".


*Определитесь, кто Вы:
робот инопланетянин человек

Внимание! Время в таблицах - всемирное. Для получения местного времени необходимо прибавить поправку, которая равна 8 ч.

Смотрите также архив погоды в соседних городах и на ближайших метеорологических станциях:

Погода в Умнегове (Монголия) (91 км)
Погода в Хандагайты (Тува, Россия) (105 км)
Погода в Ногооннууре (Монголия) (126 км)
Погода в Завхане (Монголия) (132 км)
Погода в Мугур-Аксы (Тува, Россия) (134 км)
Погода в Баруунтурууне (Монголия) (168 км)
Погода в Чадане (Тува, Россия) (168 км)
Погода в Углие (Монголия) (183 км)
Погода в Шагонаре (Тува, Россия) (186 км)
Погода в Тээли (Тува, Россия) (190 км)

Пояснения к столбцам:

Ветер - указаны скорость ветра в м/с - средняя за 10 мин, порывы в срок и между сроками (в фигурных скобках) и направление, откуда дует ветер: С - северный, СВ - северо-восточный, В - восточный, ЮВ - юго-восточный, Ю - южный, ЮЗ - юго-западный, З - западный, СЗ - северо-западный.
Видимость - горизонтальная дальность видимости в метрах или километрах. При видимости от 1 до 10 км при отсутствии осадков обычно наблюдается дымка, при ухудшении видимости до 1 км и менее - туман. В сухую погоду видимость может ухудшаться дымом, пылью или мглою.
Явления - указаны атмосферные явления, наблюдавшиеся в срок или в последний час перед сроком; фигурными скобками обозначены явления, наблюдавшиеся между сроками (за 1-3 часа до срока); квадратными скобками обозначены град или гололедные отложения с указанием их диаметра в мм.
Облачность - указаны через наклонную черту общая и нижняя облачность в баллах и высота нижней границы облаков в метрах; квадратными скобками обозначены формы облаков: Ci - перистые, Cs - перисто-слоистые, Cc - перисто-кучевые, Ac - высококучевые, As - высокослоистые, Sc - слоисто-кучевые, Ns - слоисто-дождевые, Cu - кучевые, Cb - кучево-дождевые. Подробнее классификацию облаков см. в Атласе облаков (PDF).
T - Температура воздуха - температура, измеренная на высоте 2 м над землей.
Td - Температура точки росы - температура, при понижении до которой содержащийся в воздухе водяной пар достигнет насыщения.
f - Относительная влажность воздуха - влажноcть воздуха, измеренная на высоте 2 м над землей.
Te - Эффективная температура - температура, которую ощущает одетый по сезону человек в тени. Характеристика душности погоды. При расчете учитывается влияние влажности воздуха и скорости ветра на теплоощущения человека.
Tes - Эффективная температура на солнце - температура, которую ощущает человек, с поправкой на солнечный нагрев. Характеристика знойности погоды. Зависит от высоты солнца над горизонтом, облачности и скорости ветра. Ночью, в пасмурную погоду, а также при ветре 12 м/с и более поправка равна нулю.
P - Атмосферное давление - приведенное к уровню моря атмосферное давление.
Po - Атмосферное давление - измеренное на уровне метеостанции атмосферное давление.
Tmin - Минимальная температура - минимум температуры воздуха на высоте 2 м над землей.
Tmax - Максимальная температура - максимум температуры воздуха на высоте 2 м над землей.
R - Количество осадков - Количество выпавших осадков за период времени, мм. При наведении курсора мыши на число - период времени, за который выпало указанное количество осадков.
R24 - Количество осадков - Количество выпавших осадков за 24 часа, мм.
S - Снежный покров - Высота снежного покрова, см. При наведении курсора мыши на число - состояние снежного покрова и степень покрытия местности в баллах.